Regional Weather Roundup
Issued by NWS

Home | Current Version | Previous Version | Graphics & Text | Print | Product List | Glossary On
Versions: 1 2 3 4 5 6 7 8 9 10 11 12 13 14 15 16 17 18 19 20 21 22 23 24 25 26 27 28 29 30 31 32 33 34 35 36 37 38 39 40 41 42 43 44 45 46 47 48 49 50
000
ASUS45 KBOI 271310
RWRID

IDAHO REGIONAL WEATHER ROUNDUP
NATIONAL WEATHER SERVICE BOISE ID
700 AM MDT MON JUL 27 2015

NOTE: "FAIR" INDICATES FEW OR NO CLOUDS BELOW 12000 FEET
WITH NO SIGNIFICANT WEATHER AND/OR OBSTRUCTIONS TO VISIBILITY

IDZ012-014-271400-
SOUTHWEST IDAHO


CITY           SKY/WX    TMP DP  RH WIND       PRES   REMARKS
BOISE          MOCLDY    57  41  55 NW9       29.98R
CALDWELL       MOCLDY    55  34  44 W16       29.99R
MOUNTAIN HOME  MOCLDY    56  44  64 NW15      29.97R
$$

IDZ016-017-271400-
SOUTHCENTRAL IDAHO


CITY           SKY/WX    TMP DP  RH WIND       PRES   REMARKS
BURLEY         LGT RAIN  58  42  55 W22G38    29.95R
JEROME         LGT RAIN  53  46  77 SW22G28   29.98R
TWIN FALLS     CLOUDY    57  43  59 W23G33    29.97R
$$

IDZ019>023-271400-
SOUTHEAST IDAHO


CITY           SKY/WX    TMP DP  RH WIND       PRES   REMARKS
IDAHO FALLS    PTCLDY    57  45  64 S21G29    29.89R
POCATELLO      CLEAR     58  42  55 SW22G32   29.94R
REXBURG        PTCLDY    56  45  66 SW12      29.89R
$$

IDZ006-010-011-018-031-032-271400-
CENTRAL IDAHO MOUNTAINS


CITY           SKY/WX    TMP DP  RH WIND       PRES   REMARKS
MCCALL         MOCLDY    51  40  65 VRB5      29.99R
HAILEY         LGT RAIN  55  46  71 W7        30.00R
STANLEY          N/A     45  41  86 CALM      30.02F
SALMON         CLOUDY    52  46  82 NE8       29.93R
CHALLIS        RAIN      54  42  64 W25G41    29.96R SQUALL
$$

IDZ002-004-006-007-026-271400-
NORTHERN IDAHO


CITY           SKY/WX    TMP DP  RH WIND       PRES   REMARKS
LEWISTON       CLOUDY    59  40  49 SE3       29.97R
LOWELL           N/A     60  50  69 CALM      29.98R
COEUR D`ALENE  MOCLDY    48  43  81 CALM      29.98R
MULLAN PASS    CLOUDY    43  35  73 VRB5      30.03R
$$



USA.gov is the U.S. government's official web portal to all federal, state and local government web resources and services.